Preview of NWS' New Version of Forecast
This preview is not operational and should not be used for support decisions.

Regional Weather Roundup (RWR)

Issued by Gray - Portland, ME (GYX)

                            
000
ASUS41 KGYX 240705
RWRGYX
WEATHER ROUNDUP FOR MAINE AND NEW HAMPSHIRE
NATIONAL WEATHER SERVICE GRAY ME
300 AM EDT MON JUN 24 2019

MEZ002-005-006-010-012-015-018-020-021-024-026-027-029-240800-
MAINE
  
CITY           SKY/WX    TMP DP  RH WIND       PRES   REMARKS
PORTLAND       FAIR      59  47  64 W8        29.77R                  
SANFORD        FAIR      51  49  92 NW8       29.78S                  
BAR HARBOR     FAIR      52  51  97 CALM      29.77R                  
WISCASSET      FAIR      53  49  86 CALM      29.77S                  
ROCKLAND       FAIR      59  51  75 CALM      29.76S                  
FRYEBURG       FAIR      54  47  77 CALM      29.79S                  
LEWISTONAUBURN FAIR      55  49  80 CALM      29.78S                  
AUGUSTA        FAIR      61  45  55 N8G17     29.78R                  
WATERVILLE     FAIR      60  43  53 N3        29.76R                  
BANGOR         FAIR      51  51 100 CALM      29.78R                  
GREENVILLE       N/A     53  42  66 NW5       29.78S                  
MILLINOCKET    FAIR      50  43  77 W3        29.78S                  
HOULTON        FAIR      40  38  93 CALM      29.75R                  
PRESQUE ISLE   FAIR      49  39  68 NW7       29.77S                  
FRENCHVILLE    FAIR      50  36  58 NW8       29.76S                  
CARIBOU        FAIR      49  38  65 NW7       29.75S                  
$$

NHZ002-005-008-009-011-012-014-240800-
NEW HAMPSHIRE
  
CITY           SKY/WX    TMP DP  RH WIND       PRES   REMARKS
PORTSMOUTH     PTCLDY    64  48  56 W8        29.76F                  
ROCHESTER      FAIR      64  47  53 W6        29.78S                  
NASHUA         FAIR      58  56  93 NW5       29.81F                  
MANCHESTER     FAIR      65  53  65 CALM      29.79F                  
CONCORD        FAIR      54  49  83 CALM      29.81S                  
LACONIA        FAIR      61  51  70 VRB3      29.81S                  
PLYMOUTH       FAIR      53  49  87 CALM      29.81S                  
BERLIN         FAIR      46  44  93 CALM      29.82S                  
WHITEFIELD     FAIR      47  43  86 CALM      29.83S                  
JAFFREY        FAIR      64  51  62 CALM      29.86S                  
KEENE          FAIR      55  54  96 CALM      29.84F                  
LEBANON        FAIR      54  48  80 E3        29.82F                  
MT WASHINGTON  PTCLDY    43  30  61 N41G52      N/A                   
$$

VTZ005-007-008-240800-
VERMONT
  
CITY           SKY/WX    TMP DP  RH WIND       PRES   REMARKS
ST JOHNSBURY     N/A     52  49  89 MISG      29.81S                  
MONTPELIER     FAIR      60  49  66 W5        29.88S                  
BURLINGTON     FAIR      59  52  77 E3        29.83S                  
$$

MAZ007-012-024-CTZ003-RIZ002-NYZ038-NYZ072-240800-
SOUTHERN NEW ENGLAND AND NY
  
CITY           SKY/WX    TMP DP  RH WIND       PRES   REMARKS
BOSTON         MOCLDY    72  52  49 W10       29.79S                  
WORCESTER      FAIR      63  52  67 W13       29.85S                  
NANTUCKET      FAIR      62  58  86 W8        29.79S                  
PROVIDENCE     FAIR      69  60  73 W7        29.81S                  
HARTFORD       FAIR      68  48  48 CALM      29.84S                  
ALBANY         FAIR      60  49  66 CALM      29.86F                  
NEW YORK CITY  FAIR      73  54  51 NW10      29.86F                  
$$

ANZ081-ANZ082-ANZ150-NHZ014-MEZ023>029-240800-
COASTAL MARINE OBSERVATIONS
  
STATION/POSITION TIME  TEMP    WIND        PRES    WAVE
                       AIR SEA DIR/SP/G            HT/PER
                 (UTC) (F)     (DEG/KT/KT) (MB)    (FT/S)
ISLE OF SHOALS   0600   69     290/ 17/ 18 1007.2F
JEFFREYS LEDGE   0638      58                N/A     1/ 2
$$

.............KEY..............
   WCI - WIND CHILL
   TC  - TEMPERATURE IN CELSIUS
   VSB - VISIBILITY IN MILES
   HX  - HEAT INDEX
   FAIR- INDICATES FEW OR NO CLOUDS BELOW 12,000 FT, WITH NO 
         SIGNIFICANT WEATHER AND/OR OBSTRUCTIONS TO VISIBILITY.